[[{"header":{"parameterUnit":"m.s-1","parameterCategory":1,"la1":30.2991,"la2":30.254,"lo1":-89.0895,"lo2":-89.0444,"dy":0.0017,"dx":0.0017,"nx":28,"ny":28,"refTime":"2024-04-27T09:00:00:Z","depth":0,"parameterNumber":2,"parameterNumberName":"U-component_of_WINDS"},"data":[0,0,0,0,0,0,0,0,0,0,0,0,0,0,0,0,0,0,0,0,0,0,0,0,0,0,0,0,0,0,0,0,0,0,0,0,0,0,0,0,0,0,0,0,0,0,0,0,0,0,0,0,0,0,0,0,0,0,-7.2243,-7.2244,0,-7.2316,-7.2317,-7.2318,-7.2252,-7.2249,-7.2246,-7.2244,-7.2313,-7.2317,-7.2321,0,0,0,0,0,0,0,0,0,0,0,0,0,-7.2042,-7.2046,-7.2243,-7.2244,-7.2245,-7.2316,-7.2317,-7.2318,-7.2252,-7.2249,-7.2246,-7.2243,-7.2311,-7.2317,-7.2322,0,0,0,0,0,0,0,0,0,0,0,0,0,-7.2124,-7.2048,-7.2243,-7.2221,-7.222,-7.2316,-7.2317,-7.2318,-7.2253,-7.2249,-7.2245,-7.2241,-7.231,-7.2316,-7.2322,-7.2443,0,0,-7.2342,-7.2345,0,0,0,0,0,0,0,0,-7.2119,-7.2131,-7.2223,-7.2223,-7.2221,-7.2271,-7.2271,-7.236,-7.2254,-7.224,-7.2244,-7.2239,-7.2302,-7.2309,-7.2331,-7.2446,-7.2449,-7.2343,-7.2347,-7.235,-7.2351,0,0,0,0,0,0,0,-7.2114,-7.2127,-7.2272,-7.2225,-7.2224,-7.2206,-7.2213,-7.2288,-7.2292,-7.2241,-7.2236,-7.2246,-7.23,-7.2325,-7.2332,-7.245,-7.2343,-7.2348,-7.2352,-7.2355,-7.2665,-7.267,0,0,0,0,0,0,-7.2111,-7.2123,-7.227,-7.2274,-7.216,-7.2213,-7.2221,-7.2259,-7.2291,-7.2292,-7.2249,-7.2243,-7.2316,-7.2325,-7.2334,-7.2475,-7.235,-7.2356,-7.2359,-7.2661,-7.2666,-7.2671,0,0,0,0,0,0,-7.2107,-7.2125,-7.2267,-7.2198,-7.2214,-7.222,-7.2264,-7.2262,-7.2287,-7.2298,-7.2298,-7.2274,-7.2313,-7.2325,-7.2416,-7.2476,-7.2359,-7.2364,-7.2656,-7.2663,-7.2669,-7.2759,0,0,0,0,0,0,-7.2101,-7.2124,-7.217,-7.2199,-7.2218,-7.2349,-7.2268,-7.2267,-7.2299,-7.2291,-7.2321,-7.2322,-7.2311,-7.2407,-7.2423,-7.2483,-7.2369,-7.265,-7.2659,-7.2667,-7.275,-7.2768,-7.2782,0,0,0,0,0,-7.2094,-7.2192,-7.2173,-7.2191,-7.2277,-7.2353,-7.2363,-7.235,-7.2304,-7.235,-7.2357,-7.2321,-7.2469,-7.2417,-7.2434,-7.2497,-7.2646,-7.2657,-7.2666,-7.2743,-7.2764,-7.2782,0,0,0,0,0,0,-7.2167,-7.2195,-7.2174,-7.2284,-7.2317,-7.2341,-7.2399,-7.2373,-7.2418,-7.2408,-7.2388,-7.2396,-7.2492,-7.2504,-7.2446,-7.2615,-7.255,-7.2563,-7.2602,-7.2623,-7.2638,-7.2631,-7.2375,0,0,0,0,0,-7.2197,-7.2258,-7.2278,-7.2373,-7.2391,-7.2393,-7.2425,-7.2412,-7.2444,-7.2457,-7.2471,-7.2502,-7.2555,-7.259,-7.264,-7.2754,-7.2757,-7.2806,-7.2822,-7.2835,-7.2845,-7.2905,-7.2925,-7.2703,-7.2703,-7.2703,0,0,-7.2257,-7.228,-7.2319,-7.2388,-7.2412,-7.2473,-7.2404,-7.2472,-7.2517,-7.2467,-7.2553,-7.2565,-7.2598,-7.2701,-7.2747,-7.2714,-7.2909,-7.2847,-7.2858,-7.2861,-7.2917,-7.2938,-7.2956,-7.271,-7.2709,-7.2708,0,0,-7.2397,-7.2422,-7.2503,-7.2529,-7.2567,-7.2567,-7.2587,-7.2616,-7.2622,-7.271,-7.2673,-7.2726,-7.2819,-7.2843,-7.2868,-7.302,-7.2987,-7.3037,-7.3119,-7.3177,-7.3194,-7.3209,-7.3261,-7.328,-7.3049,-7.3049,-7.3049,0,-7.2466,-7.2559,-7.2547,-7.2618,-7.2649,-7.261,-7.269,-7.2715,-7.2767,-7.2788,-7.2752,-7.2867,-7.2887,-7.2994,-7.3031,-7.3054,-7.3073,-7.3031,-7.3193,-7.3208,-7.3222,-7.3271,-7.3291,-7.3054,-7.3054,-7.3053,-7.3053,0,-7.2641,-7.2706,-7.2767,-7.2819,-7.2857,-7.2933,-7.2931,-7.2971,-7.2956,-7.296,-7.3049,-7.3072,-7.3125,-7.315,-7.3136,-7.3255,-7.3234,-7.3196,-7.3129,-7.3249,-7.3294,-7.3313,-7.3062,-7.306,-7.3059,-7.3057,0,0,-7.2825,-7.2873,-7.2895,-7.2917,-7.2957,-7.3006,-7.308,-7.3134,-7.3167,-7.3205,-7.3264,-7.3344,-7.331,-7.3338,-7.3327,-7.3378,-7.3494,-7.3334,-7.3334,-7.336,-7.3624,-7.3649,-7.3671,-7.3474,-7.3478,-7.3481,-7.362,0,-7.2965,-7.3094,-7.3086,-7.3207,-7.3265,-7.323,-7.3294,-7.3324,-7.3331,-7.338,-7.3387,-7.3443,-7.3395,-7.3412,-7.3462,-7.3469,-7.3546,-7.346,-7.3526,-7.3529,-7.3515,-7.3695,-7.3722,-7.3852,-7.3638,-7.3641,-7.3643,0,-7.3144,-7.3189,-7.3316,-7.3347,-7.3371,-7.3429,-7.3477,-7.3526,-7.3559,-7.356,-7.3594,-7.3574,-7.3646,-7.3581,-7.368,-7.3621,-7.3648,-7.3657,-7.3661,-7.3663,-7.359,-7.3698,-7.3893,-7.3911,-7.3671,-7.3669,-7.3667,0,-7.3262,-7.3355,-7.3442,-7.3463,-7.3502,-7.3543,-7.3561,-7.3591,-7.3624,-7.3666,-7.3687,-7.3737,-7.3763,-7.3802,-7.3795,-7.375,-7.3895,-7.383,-7.3895,-7.3895,-7.3923,-7.3921,-7.4121,-7.3948,-7.3948,-7.3948,-7.3947,0,-7.3416,-7.3494,-7.3496,-7.3549,-7.3635,-7.3626,-7.3711,-7.3724,-7.3751,-7.3805,-7.3778,-7.3829,-7.3819,-7.387,-7.3865,-7.3946,-7.3959,-7.396,-7.3957,-7.396,-7.3959,-7.3974,-7.3964,-7.3953,-7.3952,-7.3951,-7.395,0,-7.356,-7.3565,-7.3657,-7.3688,-7.3697,-7.3759,-7.3784,-7.3833,-7.3839,-7.3908,-7.3923,-7.3931,-7.3989,-7.3988,-7.4054,-7.4051,-7.4149,-7.4137,-7.4137,-7.4134,-7.4198,-7.419,-7.4411,-7.4439,-7.4251,-7.4253,-7.4255,0,-7.3656,-7.3716,-7.3753,-7.3788,-7.3809,-7.3866,-7.39,-7.3894,-7.3929,-7.3973,-7.4017,-7.4073,-7.4117,-7.4211,-7.4221,-7.4271,-7.4258,-7.4333,-7.4265,-7.4266,-7.4255,-7.425,-7.4255,-7.4344,-7.4346,-7.4348,-7.435,0,-7.3825,-7.3825,-7.3876,-7.3928,-7.397,-7.401,-7.4047,-7.4077,-7.4074,-7.4116,-7.4176,-7.4211,-7.4279,-7.4333,-7.4382,-7.4398,-7.4373,-7.4372,-7.4389,-7.439,-7.4386,-7.4386,-7.4169,-7.4365,-7.4364,-7.4363,-7.4362,-7.4361,-7.3946,-7.3997,-7.4031,-7.4088,-7.4116,-7.4151,-7.4199,-7.4212,-7.4262,-7.4318,-7.4311,-7.4378,-7.4409,-7.4472,-7.4493,-7.4543,-7.4517,-7.4542,-7.4548,-7.4553,-7.4559,-7.4382,-7.4552,-7.4552,-7.4552,-7.4551,-7.4551,0,-7.4111,-7.4132,-7.4185,-7.4238,-7.4283,-7.4259,-7.4299,-7.4337,-7.4396,-7.4429,-7.4474,-7.4542,-7.4596,-7.4612,-7.4663,-7.47,-7.469,-7.4713,-7.4708,-7.4712,-7.4581,-7.456,-7.4721,-7.4721,-7.4721,-7.4721,-7.4721,-7.4721,-7.4201,-7.4285,-7.4289,-7.4386,-7.4406,-7.4472,-7.4497,-7.4529,-7.4555,-7.4632,-7.4678,-7.4689,-7.4714,-7.4767,-7.4815,-7.4818,-7.4836,-7.4864,-7.4862,-7.4739,-7.4722,-7.4705,-7.4685,-7.4869,-7.4869,-7.4988,-7.4989,-7.499]},{"header":{"parameterUnit":"m.s-1","parameterCategory":1,"la1":30.2991,"la2":30.254,"lo1":-89.0895,"lo2":-89.0444,"dy":0.0017,"dx":0.0017,"nx":28,"ny":28,"refTime":"2024-04-27T09:00:00:Z","depth":0,"parameterNumber":3,"parameterNumberName":"V-component_of_WINDS"},"data":[0,0,0,0,0,0,0,0,0,0,0,0,0,0,0,0,0,0,0,0,0,0,0,0,0,0,0,0,0,0,0,0,0,0,0,0,0,0,0,0,0,0,0,0,0,0,0,0,0,0,0,0,0,0,0,0,0,0,6.1299,6.1299,0,6.1242,6.1241,6.124,6.1137,6.1135,6.1133,6.1131,6.1071,6.1071,6.1072,0,0,0,0,0,0,0,0,0,0,0,0,0,6.1322,6.1322,6.13,6.1299,6.1298,6.1242,6.1241,6.124,6.1137,6.1135,6.1132,6.113,6.1071,6.1071,6.1072,0,0,0,0,0,0,0,0,0,0,0,0,0,6.1293,6.1322,6.13,6.124,6.1234,6.1242,6.1241,6.124,6.1137,6.1134,6.1132,6.1129,6.1071,6.1071,6.1072,6.1133,0,0,6.1073,6.1073,0,0,0,0,0,0,0,0,6.1295,6.1292,6.1249,6.1244,6.1237,6.1193,6.1227,6.1204,6.1138,6.1174,6.1131,6.1127,6.1114,6.1111,6.1106,6.113,6.1128,6.1073,6.1073,6.1073,6.1073,0,0,0,0,0,0,0,6.1297,6.1294,6.1276,6.1249,6.1242,6.1216,6.1209,6.1222,6.1161,6.1171,6.1163,6.1158,6.111,6.1106,6.1104,6.1127,6.1073,6.1073,6.1073,6.1074,6.12,6.1203,0,0,0,0,0,0,6.1308,6.1297,6.1278,6.1275,6.1259,6.1218,6.121,6.121,6.1161,6.1151,6.116,6.1153,6.1107,6.1104,6.1102,6.117,6.1073,6.1074,6.1074,6.1197,6.12,6.1204,0,0,0,0,0,0,6.1309,6.1307,6.1281,6.1284,6.1278,6.1221,6.1222,6.1211,6.1207,6.1153,6.1142,6.1167,6.1105,6.1101,6.1126,6.1167,6.1074,6.1074,6.1193,6.1198,6.1202,6.1309,0,0,0,0,0,0,6.131,6.1308,6.133,6.1285,6.1279,6.1306,6.1225,6.1212,6.1208,6.1198,6.1157,6.1147,6.1102,6.1126,6.1127,6.1166,6.1074,6.1189,6.1195,6.12,6.1301,6.1316,6.1329,0,0,0,0,0,6.1311,6.1362,6.1332,6.133,6.1305,6.1309,6.1305,6.1252,6.1211,6.1233,6.1199,6.1148,6.1163,6.113,6.1129,6.1169,6.1186,6.1193,6.12,6.1295,6.1313,6.1329,0,0,0,0,0,0,6.1413,6.1355,6.1321,6.1359,6.134,6.1291,6.1317,6.1274,6.1265,6.1256,6.1192,6.1183,6.1217,6.1196,6.116,6.1227,6.1167,6.1174,6.1239,6.1256,6.127,6.1274,6.1075,0,0,0,0,0,6.1441,6.1448,6.1397,6.1436,6.1428,6.1375,6.1374,6.1336,6.1313,6.1304,6.1272,6.1252,6.1252,6.1253,6.125,6.1299,6.1288,6.1326,6.134,6.1352,6.1358,6.1383,6.1399,6.1227,6.1227,6.1227,0,0,6.1497,6.1466,6.1474,6.1456,6.1436,6.1446,6.1368,6.1381,6.1388,6.1306,6.1327,6.1304,6.1277,6.1315,6.1329,6.1298,6.1404,6.1361,6.1371,6.137,6.1392,6.1408,6.1423,6.1232,6.1231,6.123,0,0,6.1603,6.1581,6.1611,6.1593,6.1565,6.1529,6.1537,6.1496,6.1477,6.1498,6.1437,6.1444,6.1445,6.1429,6.1421,6.1525,6.1477,6.1526,6.1598,6.1623,6.1637,6.1648,6.1685,6.1699,6.1533,6.1533,6.1533,0,6.1676,6.1687,6.1632,6.1649,6.1643,6.157,6.1601,6.1586,6.1559,6.1556,6.1522,6.1523,6.15,6.1533,6.1558,6.1554,6.1561,6.1529,6.1639,6.165,6.166,6.1694,6.1708,6.1539,6.1538,6.1538,6.1537,0,6.1779,6.1788,6.1816,6.1791,6.1788,6.1812,6.1761,6.1765,6.1728,6.1696,6.1719,6.169,6.168,6.1685,6.1648,6.1713,6.1694,6.1651,6.1589,6.1684,6.1715,6.1727,6.1548,6.1545,6.1544,6.1542,0,0,6.1945,6.1891,6.1902,6.1891,6.1855,6.1862,6.1883,6.1874,6.1878,6.1863,6.1879,6.1883,6.1843,6.1834,6.1795,6.1817,6.1901,6.1771,6.1769,6.1795,6.1971,6.2003,6.2019,6.1871,6.1873,6.1875,6.1973,0,6.2043,6.2076,6.2027,6.2071,6.2079,6.2012,6.203,6.2011,6.1983,6.1986,6.1955,6.1959,6.1906,6.19,6.1919,6.1887,6.1935,6.188,6.1885,6.1885,6.1892,6.2035,6.2068,6.2162,6.1984,6.1986,6.1988,0,6.2161,6.2152,6.2196,6.2159,6.2161,6.2178,6.2166,6.2171,6.2148,6.2126,6.2118,6.2072,6.2091,6.2033,6.2058,6.2022,6.2021,6.2006,6.2009,6.2005,6.1941,6.2035,6.219,6.2204,6.2006,6.2005,6.2004,0,6.2278,6.2276,6.2303,6.2295,6.2253,6.2267,6.225,6.2224,6.2222,6.2213,6.2211,6.2204,6.2199,6.2195,6.215,6.2112,6.2181,6.2118,6.2163,6.2164,6.2178,6.2178,6.2335,6.2181,6.2181,6.2181,6.218,0,6.2391,6.2421,6.2355,6.2371,6.2403,6.2348,6.2381,6.2357,6.2335,6.2346,6.2288,6.23,6.2239,6.2245,6.2209,6.2235,6.2234,6.2217,6.2207,6.2221,6.2224,6.2219,6.2211,6.2184,6.2183,6.2183,6.2182,0,6.2526,6.2482,6.2507,6.2465,6.2456,6.2481,6.2446,6.2459,6.2429,6.2443,6.2444,6.2396,6.2399,6.2354,6.2348,6.2324,6.2366,6.2345,6.2374,6.2367,6.2413,6.2409,6.2572,6.259,6.2426,6.2428,6.2429,0,6.26,6.2621,6.2583,6.2586,6.2572,6.2578,6.2576,6.2523,6.2524,6.2501,6.2518,6.2516,6.2512,6.2521,6.2486,6.2482,6.2459,6.2517,6.2458,6.2472,6.2459,6.2458,6.246,6.2529,6.2531,6.2532,6.2534,0,6.2737,6.2715,6.2714,6.2707,6.2706,6.2697,6.2685,6.2691,6.2634,6.2638,6.2641,6.2638,6.2633,6.2632,6.2622,6.2604,6.256,6.2553,6.2563,6.2577,6.2592,6.2584,6.2406,6.2549,6.2547,6.2546,6.2545,6.2545,6.2843,6.2859,6.2834,6.2836,6.2821,6.2812,6.2823,6.2794,6.2795,6.2787,6.2757,6.2765,6.2743,6.2724,6.2712,6.2718,6.269,6.2704,6.2708,6.2712,6.272,6.2593,6.2716,6.2715,6.2715,6.2715,6.2714,0,6.2976,6.2957,6.2959,6.2944,6.2946,6.2905,6.2889,6.2893,6.2901,6.2885,6.2883,6.2887,6.2887,6.2853,6.2848,6.286,6.2839,6.286,6.2858,6.2855,6.2746,6.2737,6.2877,6.2877,6.2877,6.2877,6.2877,6.2877,6.3045,6.307,6.3046,6.3064,6.3045,6.3052,6.3047,6.3038,6.3025,6.3032,6.3032,6.301,6.2986,6.298,6.2979,6.2968,6.2969,6.2997,6.298,6.2878,6.2863,6.2847,6.2839,6.2998,6.2998,6.3089,6.309,6.309]}]]